Temperature
31 32 32 32 32 33 33 32 31 31 31 31 31 31 30 30 29 29 29 28 28 27 26 26 25 25 24 24 24 23 23 22 22 22 21 21 20 20 20 20 19 19 19 19
29 31 31 32 32 33 33 32 32 32 31 32 31 30 30 29 29 28 27 27 26 26 25 25 25 24 24 24 23 23 22 22 22 21 21 21 21 20 20 20 19 19 19 19
28 30 30 30 32 32 32 33 32 31 31 31 31 30 29 28 28 28 27 26 25 25 24 24 24 24 24 23 23 22 22 22 21 21 21 21 20 20 20 20 19 19 19 19
27 28 27 30 32 33 32 32 32 32 31 31 30 29 28 28 27 27 26 25 25 24 24 23 23 23 23 23 22 22 22 21 21 21 20 20 20 20 20 19 19 19 19 18
26 26 27 29 31 31 31 30 31 31 31 30 29 28 27 27 27 26 25 25 24 24 24 23 23 23 22 22 22 21 21 21 21 20 20 20 20 19 19 19 19 19 18 18
25 25 26 28 30 31 31 29 30 29 29 29 28 27 27 26 26 25 24 24 23 23 23 23 22 22 22 22 21 21 21 21 20 20 20 20 19 19 19 18 18 18 18 18
25 25 26 28 29 30 28 27 27 27 27 27 26 26 25 25 24 24 23 23 23 22 22 22 21 21 21 21 21 21 20 20 20 20 19 19 19 19 18 18 18 18 17 17
25 24 25 27 28 26 25 25 25 25 25 25 25 25 24 24 23 23 22 22 22 22 21 21 21 21 20 20 20 20 20 19 19 19 19 19 19 18 18 18 17 17 17 17
24 24 24 24 24 24 24 24 24 24 24 24 24 24 23 23 22 22 21 21 21 21 21 20 20 20 20 20 20 19 19 19 19 19 19 18 18 18 17 17 17 17 17 16
23 23 24 23 23 23 23 23 23 23 23 23 23 23 23 22 22 21 21 21 20 20 20 20 20 19 19 19 19 19 18 18 18 18 18 18 18 17 17 17 16 16 16 16
22 22 22 22 22 22 22 22 22 22 22 22 22 22 22 21 21 21 20 20 20 19 19 19 19 19 18 18 18 18 18 18 18 18 18 17 17 17 17 17 16 16 16 16
21 22 22 21 21 21 21 21 21 21 21 21 21 21 21 21 20 20 19 19 19 19 18 18 18 18 18 18 17 17 17 17 17 17 17 17 17 16 16 16 16 16 16 16
20 20 20 20 20 20 20 20 20 20 20 20 20 20 20 20 19 19 19 18 18 18 18 17 17 17 17 17 17 17 17 17 17 17 16 16 16 16 16 16 16 16 16 16
19 19 19 19 19 19 19 19 19 19 19 19 19 19 19 19 18 18 18 17 17 17 17 17 17 17 17 17 16 16 16 16 16 16 16 16 16 16 16 15 15 15 15 15
18 18 18 18 19 19 18 18 19 19 19 18 18 18 18 18 18 17 17 17 17 16 16 16 16 16 16 16 16 16 16 16 16 16 16 15 15 15 15 15 15 15 15 15
17 18 18 18 18 18 18 18 18 18 18 18 18 17 17 17 17 17 16 16 16 16 16 16 15 15 15 15 15 15 15 15 15 15 15 15 15 15 15 15 15 14 14 14
17 17 17 17 17 17 17 17 17 17 17 17 17 17 16 16 16 16 16 16 16 15 15 15 15 15 15 15 15 15 15 15 15 15 15 15 15 15 15 14 14 14 14 14
17 17 17 17 17 17 16 16 16 16 16 16 16 16 16 15 15 15 15 15 15 15 14 14 14 14 14 14 14 14 14 14 14 15 14 14 14 14 14 14 14 13 13 13
16 16 16 16 16 16 16 15 16 16 15 15 15 15 15 15 14 14 14 14 14 14 14 14 14 14 13 14 14 14 14 14 14 14 14 14 14 14 14 13 13 13 13 13
15 15 16 15 15 15 15 15 15 15 15 15 15 14 14 14 14 14 14 14 14 13 13 13 13 13 13 13 13 13 13 14 14 14 13 13 13 13 13 13 13 13 12 12
15 15 15 15 15 14 14 14 14 14 14 14 14 14 14 14 14 13 13 13 13 13 13 13 13 12 13 13 13 13 13 13 13 13 13 13 13 13 12 12 12 12 12 12
14 14 14 14 14 14 14 14 14 14 14 13 13 13 13 13 13 13 13 13 12 12 12 12 12 12 12 12 12 12 13 13 13 13 13 12 12 12 12 12 12 11 11 11
14 14 14 13 13 13 13 14 13 13 13 13 13 13 13 13 13 13 12 12 12 12 12 12 12 12 12 12 12 12 12 12 12 12 12 11 11 11 11 11 11 11 10 10
13 13 13 13 13 13 13 13 13 13 13 13 13 12 12 12 12 12 12 12 12 12 11 11 11 11 11 11 11 11 11 11 11 11 11 11 10 10 10 10 10 10 10 9
13 13 13 13 13 13 13 12 12 12 12 12 12 12 12 12 11 11 11 11 11 11 11 11 11 11 11 10 10 10 10 10 10 10 10 10 10 9 9 9 9 9 9 9
13 12 13 12 12 12 12 12 12 12 12 12 12 12 11 11 11 11 11 11 11 11 10 10 10 10 10 10 10 10 10 10 10 10 9 9 9 8 8 8 8 8 8 8
12 12 12 12 12 12 12 12 12 12 12 11 11 11 11 11 11 11 11 10 10 10 10 10 10 10 10 10 10 10 9 9 9 9 8 8 8 8 8 8 7 7 7 7
Wind_Speed
17 16 14 14 16 17 17 15 12 10 8 6 6 4 4 5 6 7 7 7 7 7 6 7 8 8 8 8 7 8 9 9 8 7 6 5 5 5 4 5 5 4 4 4
17 18 17 17 16 17 17 15 13 12 7 3 6 6 3 3 5 6 7 6 6 6 7 6 6 7 7 7 6 6 7 7 6 7 6 6 5 4 4 4 4 4 5 4
15 17 17 20 17 16 15 14 13 11 7 3 4 5 3 2 5 5 6 6 6 5 5 4 4 5 6 6 6 6 6 6 6 6 5 5 5 5 5 4 4 4 4 4
13 14 19 15 14 14 13 11 10 7 5 3 3 4 5 3 3 5 6 6 6 5 6 4 3 4 4 5 5 5 5 5 5 5 5 5 5 5 5 4 4 4 4 4
11 16 17 14 11 12 12 9 6 5 4 3 3 4 3 3 3 5 5 5 5 5 5 5 4 4 3 4 4 5 5 4 4 4 5 5 5 4 4 4 4 4 4 3
12 15 16 11 8 9 9 8 3 1 1 2 2 3 2 4 5 5 5 5 5 5 5 4 3 3 3 3 3 3 3 3 3 4 4 5 5 4 4 4 4 4 4 4
16 15 12 8 6 6 9 4 3 3 3 2 2 1 3 4 5 5 5 6 6 5 4 4 4 2 3 3 2 1 1 2 3 3 3 3 3 3 3 4 4 4 4 4
14 16 11 4 2 1 1 5 5 5 5 5 5 5 4 4 5 5 5 4 5 4 4 3 4 3 4 3 2 1 1 1 1 2 2 2 2 2 3 4 5 4 4 4
6 6 1 4 4 5 4 4 5 5 5 4 3 2 3 3 4 5 5 4 3 4 3 3 3 3 3 3 2 1 1 1 1 2 2 2 3 3 3 3 4 3 3 4
4 3 1 2 5 5 5 5 5 4 4 2 1 0 1 3 4 4 4 3 3 3 3 2 2 2 3 2 2 1 1 1 1 2 2 2 1 1 2 2 3 3 3 3
4 3 1 0 2 3 3 4 4 3 3 3 2 1 1 2 3 3 3 2 2 2 2 2 2 2 2 2 2 1 1 1 2 2 2 2 1 0 1 1 2 4 3 3
4 2 2 2 1 1 2 3 4 3 4 4 3 3 1 2 3 3 2 2 2 2 2 1 1 2 2 1 0 0 1 2 2 2 2 2 2 0 3 1 2 3 4 4
3 2 1 1 0 1 2 2 3 3 3 3 3 2 2 2 3 3 3 2 1 1 1 1 0 0 1 0 0 1 2 2 3 2 2 2 2 3 2 2 2 1 3 3
2 1 0 0 0 2 2 3 2 2 3 3 3 2 2 2 3 3 3 2 2 1 0 1 1 1 0 0 1 2 3 3 3 3 3 2 3 3 3 3 3 2 2 5
3 2 2 2 2 1 2 2 3 3 2 3 2 1 1 2 2 2 2 2 2 1 1 1 1 0 1 1 1 2 3 3 3 3 3 3 3 3 3 3 3 3 2 2
4 3 4 3 2 2 2 3 3 3 2 3 2 1 1 1 2 2 1 1 1 1 0 0 1 1 1 2 3 3 3 4 4 4 4 4 3 3 3 2 2 2 2 1
5 5 5 4 4 4 4 3 4 4 3 3 2 1 2 2 2 1 1 1 1 1 1 1 1 1 2 2 3 4 3 2 4 4 4 4 3 3 3 3 2 2 2 1
5 5 5 4 4 4 4 4 4 4 3 2 1 1 1 1 1 1 1 0 0 1 1 0 1 1 2 2 2 4 4 4 4 4 3 3 3 3 3 3 3 3 2 2
5 5 5 5 4 3 3 3 4 3 2 1 1 1 1 1 1 1 0 0 1 1 0 2 2 3 3 1 2 4 5 4 3 2 2 3 4 3 2 2 2 2 2 1
5 5 5 5 3 3 3 3 3 2 1 1 0 1 1 1 0 0 0 1 1 1 2 2 2 3 2 2 3 4 4 4 3 2 2 3 3 2 2 2 2 2 1 1
4 4 4 3 2 2 3 3 2 2 1 0 0 0 1 1 1 1 1 0 2 3 2 1 2 2 3 3 4 4 4 4 3 2 2 2 2 2 2 2 2 2 2 2
1 1 2 2 1 1 1 2 2 2 1 1 1 1 1 1 1 1 1 1 2 2 1 1 2 3 5 5 3 3 3 4 3 2 2 2 2 2 2 2 2 2 2 2
0 0 0 1 1 1 1 2 2 1 1 2 2 2 1 2 2 2 2 3 3 3 3 3 4 4 5 3 2 3 3 3 4 3 3 3 3 3 3 3 3 3 3 3
0 1 1 1 1 2 3 2 2 2 2 2 3 3 2 2 2 3 3 3 4 4 3 4 4 4 4 2 3 3 3 3 4 4 3 3 4 4 4 4 4 3 3 3
2 2 2 1 1 2 2 2 3 3 3 3 3 3 3 3 3 3 3 4 4 3 3 3 2 2 2 3 3 4 4 4 5 4 4 4 3 4 3 3 4 4 4 3
1 1 2 2 1 1 2 2 3 3 3 3 3 4 4 4 4 3 3 3 4 3 2 2 2 1 2 3 4 4 4 4 4 4 4 4 4 4 4 4 5 5 4 4
3 2 2 2 1 2 3 3 4 4 5 4 4 4 4 3 3 3 3 3 3 3 3 2 2 2 2 3 3 4 4 4 4 4 4 4 3 3 3 4 4 4 5 5
Wind_Direction
261 264 259 240 231 235 243 246 249 245 235 213 177 155 140 142 146 139 128 128 130 135 142 152 154 158 165 169 171 174 174 177 179 180 183 186 188 197 194 198 209 205 211 214
257 256 258 258 241 233 238 241 243 248 251 200 148 132 130 140 151 133 130 129 123 121 135 139 146 154 157 165 167 166 172 175 170 173 179 183 184 194 192 193 204 207 212 214
254 250 252 250 249 243 236 235 238 240 242 208 137 132 137 154 145 140 133 126 118 119 121 133 150 154 158 164 168 168 168 170 169 176 181 184 188 191 198 198 206 215 214 209
256 258 250 250 257 262 256 246 235 228 225 204 130 125 118 112 122 138 138 132 129 135 133 139 140 137 152 161 154 156 162 170 175 181 186 187 192 196 202 201 206 212 214 204
251 250 251 252 253 255 254 254 259 244 227 178 166 142 121 133 137 129 129 125 126 137 138 138 143 126 118 138 149 158 168 181 184 186 188 192 199 204 200 202 208 213 215 210
244 248 247 250 248 260 250 242 269 291 268 203 193 216 155 122 123 127 120 118 113 117 114 110 105 126 130 142 145 158 170 178 175 186 201 202 198 206 205 205 212 210 212 216
241 247 251 278 274 251 237 230 40 69 52 34 67 98 103 100 99 101 109 112 110 104 100 96 88 94 116 118 127 119 129 177 183 194 209 205 187 198 204 209 211 215 215 217
236 244 244 313 294 251 51 61 63 62 59 54 56 78 97 100 105 109 99 96 109 102 96 94 97 107 113 111 105 99 103 169 173 186 224 197 174 203 212 214 215 215 211 219
235 244 37 44 63 59 65 74 60 50 48 53 51 77 100 112 113 118 116 114 106 104 102 93 91 105 124 115 110 115 125 160 172 184 216 209 197 213 219 217 222 222 223 223
224 220 267 92 76 59 40 50 55 46 32 10 341 327 126 133 132 131 125 124 119 118 116 97 80 77 104 108 100 103 148 185 191 189 199 202 190 206 216 224 237 238 242 238
225 195 209 7 58 69 46 29 28 31 3 328 336 325 256 158 147 143 134 135 132 132 120 95 76 73 80 92 107 131 166 232 227 222 207 186 173 269 221 239 234 225 228 228
262 246 225 154 90 67 49 27 28 28 6 345 348 338 330 122 112 112 123 126 126 119 113 101 86 80 66 58 94 173 253 263 264 240 217 194 173 154 18 244 216 193 209 211
276 305 318 262 17 45 42 25 26 25 4 349 357 3 29 101 112 113 117 116 99 98 107 93 320 142 116 74 50 258 267 278 287 286 263 237 216 213 225 276 297 254 216 200
357 52 119 269 337 13 9 1 357 355 353 2 4 11 46 91 115 125 127 127 120 132 185 232 247 267 360 264 238 259 269 269 272 270 273 258 251 247 232 230 242 265 246 215
295 264 253 271 288 304 328 335 325 324 338 348 343 26 75 102 104 110 115 136 145 182 229 254 261 14 16 304 275 266 270 263 261 272 275 271 265 267 259 239 234 235 250 218
262 259 256 254 265 284 288 302 309 311 310 320 322 54 54 96 103 93 87 110 158 218 104 358 337 11 341 295 286 271 253 247 251 261 265 263 263 260 261 267 265 251 252 241
247 245 247 245 242 260 275 287 303 308 311 315 322 60 59 75 90 95 70 26 28 341 314 291 310 348 321 293 286 283 283 268 250 262 266 267 272 274 270 269 273 276 279 259
244 245 251 256 262 271 287 298 292 295 295 296 296 86 73 76 56 33 359 1 317 296 308 15 39 327 285 282 287 288 281 269 264 269 282 297 294 289 292 290 281 270 269 256
249 247 249 254 258 266 279 290 287 290 299 303 307 27 25 56 42 348 287 252 266 254 329 38 26 305 288 304 287 267 268 269 276 286 300 295 285 286 288 285 289 289 274 265
247 243 241 244 248 258 266 272 282 295 267 234 164 67 61 74 37 299 327 341 337 5 42 36 318 298 310 354 308 277 277 281 281 289 283 277 290 314 319 315 312 310 313 309
250 244 243 241 235 242 237 233 229 234 232 207 148 120 132 98 66 24 333 358 52 55 25 332 307 344 0 338 297 285 293 294 288 290 288 294 309 312 309 307 315 324 322 315
257 241 228 215 226 227 223 189 171 165 156 170 131 126 115 66 41 33 35 52 67 52 357 12 35 27 353 322 304 308 311 310 320 333 335 334 331 323 310 318 325 324 327 327
181 299 6 179 166 157 128 110 110 112 133 116 104 108 90 49 30 35 40 48 52 36 16 19 25 13 346 335 338 345 347 357 0 357 1 5 6 0 353 348 342 339 332 323
160 133 89 74 108 108 97 92 84 86 91 99 106 100 95 88 65 59 56 60 54 55 45 49 40 354 335 4 14 17 19 22 14 7 12 16 20 20 12 3 351 343 333 329
63 68 82 85 109 116 114 119 118 117 112 102 98 91 83 80 74 64 61 60 78 79 59 55 33 343 15 32 34 32 32 34 28 19 25 28 25 23 16 3 352 343 342 343
73 54 63 72 73 135 131 123 111 103 95 86 80 77 74 75 78 80 80 79 78 82 73 58 55 53 41 44 49 47 42 44 37 31 30 29 24 20 16 5 352 344 345 357
77 81 94 104 96 80 86 90 88 89 90 89 81 75 73 72 70 66 63 70 77 76 68 58 52 59 53 51 55 52 51 50 45 40 32 30 23 14 9 359 354 354 357 357
Height
1437 1432 1430 1433 1435 1435 1439 1442 1451 1452 1452 1450 1449 1451 1455 1459 1461 1463 1467 1470 1472 1476 1480 1483 1486 1490 1493 1496 1499 1501 1503 1504 1505 1507 1509 1510 1511 1512 1513 1514 1515 1516 1516 1517
1444 1434 1433 1434 1431 1432 1435 1437 1440 1444 1447 1443 1446 1450 1455 1458 1462 1464 1467 1470 1473 1476 1479 1482 1485 1488 1491 1494 1496 1499 1500 1502 1503 1504 1505 1507 1508 1509 1510 1511 1512 1513 1514 1514
1450 1439 1438 1443 1432 1431 1432 1432 1437 1446 1446 1443 1447 1451 1457 1459 1461 1464 1467 1471 1474 1477 1479 1482 1484 1486 1489 1492 1495 1497 1498 1500 1501 1501 1503 1504 1506 1506 1507 1508 1509 1510 1511 1510
1452 1450 1461 1438 1424 1425 1428 1429 1431 1436 1440 1443 1448 1454 1456 1459 1462 1465 1468 1470 1474 1477 1479 1482 1484 1486 1488 1490 1493 1495 1496 1498 1499 1500 1501 1502 1503 1503 1504 1505 1506 1506 1507 1507
1455 1457 1450 1435 1428 1428 1432 1435 1433 1436 1440 1445 1449 1452 1457 1461 1463 1465 1468 1470 1473 1476 1479 1481 1483 1484 1486 1488 1490 1492 1493 1495 1496 1497 1497 1498 1499 1500 1501 1502 1502 1503 1504 1504
1454 1460 1458 1440 1428 1427 1431 1441 1437 1440 1443 1446 1448 1454 1459 1461 1463 1466 1468 1470 1473 1475 1477 1479 1481 1483 1484 1486 1488 1489 1491 1492 1493 1494 1495 1495 1496 1497 1498 1498 1499 1499 1500 1501
1453 1454 1445 1434 1429 1431 1446 1449 1442 1444 1447 1449 1451 1455 1460 1462 1463 1466 1468 1470 1472 1474 1476 1478 1480 1482 1483 1485 1486 1487 1488 1490 1491 1492 1492 1493 1493 1494 1495 1495 1495 1496 1497 1497
1449 1454 1451 1436 1433 1440 1446 1444 1446 1447 1450 1452 1454 1457 1460 1462 1464 1466 1468 1470 1472 1474 1476 1477 1479 1480 1481 1483 1484 1485 1486 1487 1488 1489 1490 1490 1490 1491 1491 1492 1493 1493 1494 1494
1444 1447 1443 1442 1443 1445 1446 1447 1449 1450 1452 1454 1456 1458 1460 1463 1465 1467 1468 1471 1472 1474 1475 1477 1478 1480 1480 1481 1482 1483 1484 1484 1485 1486 1487 1488 1488 1488 1489 1489 1490 1490 1491 1491
1441 1442 1443 1444 1445 1447 1448 1449 1451 1453 1454 1455 1457 1459 1461 1463 1464 1467 1468 1470 1472 1473 1474 1476 1477 1478 1479 1479 1480 1481 1482 1482 1483 1483 1484 1485 1486 1486 1486 1486 1487 1487 1488 1488
1440 1443 1446 1446 1448 1450 1451 1451 1452 1454 1456 1457 1457 1458 1460 1462 1463 1465 1467 1468 1470 1471 1472 1474 1475 1476 1477 1478 1478 1479 1479 1480 1481 1481 1482 1482 1483 1483 1482 1483 1483 1484 1484 1484
1443 1444 1445 1449 1450 1451 1452 1453 1454 1455 1457 1457 1458 1458 1459 1460 1462 1464 1465 1466 1468 1470 1471 1472 1474 1474 1475 1476 1477 1477 1477 1478 1479 1479 1479 1479 1479 1479 1479 1479 1479 1479 1479 1480
1445 1445 1447 1449 1450 1452 1453 1454 1455 1456 1457 1457 1457 1457 1458 1459 1461 1463 1465 1465 1466 1468 1469 1471 1472 1473 1473 1473 1474 1474 1475 1476 1477 1477 1477 1476 1476 1476 1475 1475 1475 1475 1475 1475
1445 1446 1448 1450 1452 1453 1454 1455 1456 1456 1457 1457 1457 1457 1458 1459 1461 1462 1464 1465 1465 1467 1467 1469 1470 1471 1470 1470 1471 1471 1472 1473 1474 1474 1474 1473 1473 1473 1472 1471 1471 1470 1470 1470
1447 1448 1449 1450 1452 1453 1454 1455 1456 1456 1457 1457 1457 1457 1457 1459 1460 1462 1463 1464 1464 1465 1466 1467 1468 1468 1468 1468 1469 1469 1470 1470 1471 1471 1471 1471 1470 1470 1470 1469 1468 1467 1466 1465
1447 1448 1449 1450 1451 1453 1454 1455 1456 1456 1457 1457 1457 1456 1457 1458 1459 1460 1461 1462 1463 1463 1464 1464 1465 1465 1465 1466 1466 1467 1467 1467 1468 1468 1468 1467 1467 1467 1466 1466 1465 1464 1463 1462
1447 1448 1449 1450 1451 1453 1454 1455 1455 1456 1456 1456 1456 1456 1456 1457 1458 1458 1460 1460 1461 1462 1462 1462 1462 1463 1463 1464 1464 1464 1465 1465 1465 1465 1465 1464 1464 1464 1463 1463 1462 1461 1460 1460
1446 1447 1448 1449 1450 1452 1453 1453 1454 1455 1455 1455 1455 1455 1456 1456 1457 1458 1458 1459 1459 1460 1460 1460 1460 1460 1461 1461 1462 1462 1462 1462 1463 1463 1462 1462 1461 1461 1460 1460 1459 1458 1457 1457
1444 1445 1447 1448 1449 1450 1451 1452 1453 1453 1453 1454 1454 1454 1454 1455 1456 1456 1457 1457 1458 1458 1458 1458 1458 1458 1458 1459 1459 1459 1459 1460 1459 1459 1459 1459 1458 1458 1457 1456 1456 1455 1455 1454
1442 1443 1445 1446 1447 1448 1449 1450 1451 1451 1452 1453 1454 1454 1454 1455 1455 1456 1456 1456 1456 1456 1456 1456 1455 1456 1456 1456 1456 1456 1457 1456 1456 1456 1456 1456 1455 1455 1454 1453 1453 1453 1452 1452
1440 1442 1443 1444 1445 1446 1447 1448 1450 1450 1451 1452 1453 1453 1454 1454 1454 1454 1454 1454 1454 1453 1453 1453 1453 1453 1452 1453 1453 1453 1454 1454 1454 1453 1453 1452 1452 1452 1452 1451 1450 1450 1449 1449
1438 1440 1441 1442 1443 1444 1445 1446 1448 1449 1450 1451 1451 1452 1453 1453 1453 1452 1452 1452 1452 1452 1452 1452 1451 1450 1451 1451 1450 1451 1451 1451 1451 1451 1450 1450 1450 1449 1449 1448 1448 1447 1446 1446
1438 1439 1440 1441 1442 1443 1444 1446 1447 1448 1448 1449 1450 1451 1451 1451 1451 1452 1452 1452 1451 1450 1450 1450 1450 1449 1449 1449 1449 1448 1448 1448 1448 1448 1448 1448 1447 1447 1446 1446 1445 1444 1444 1443
1438 1439 1440 1441 1441 1442 1443 1445 1446 1447 1448 1449 1449 1449 1450 1450 1451 1451 1451 1451 1451 1450 1450 1450 1449 1449 1448 1448 1447 1447 1447 1447 1447 1447 1446 1446 1445 1445 1444 1443 1442 1442 1441 1440
1438 1439 1440 1441 1441 1442 1443 1444 1445 1446 1447 1448 1449 1449 1450 1451 1451 1451 1450 1450 1450 1450 1450 1450 1449 1449 1448 1448 1448 1447 1447 1446 1446 1446 1445 1444 1444 1443 1442 1441 1440 1439 1438 1437
1439 1439 1440 1441 1442 1443 1443 1445 1446 1447 1447 1448 1449 1450 1450 1451 1451 1451 1451 1450 1450 1450 1450 1450 1450 1449 1449 1449 1448 1448 1447 1447 1446 1445 1444 1444 1443 1442 1441 1440 1439 1438 1436 1435
1440 1441 1441 1442 1442 1443 1444 1445 1446 1447 1448 1449 1450 1451 1451 1451 1452 1452 1451 1451 1451 1451 1451 1451 1451 1450 1450 1449 1449 1448 1447 1447 1446 1445 1444 1443 1442 1441 1440 1439 1437 1436 1434 1432